Regional Weather Roundup
Issued by NWS

Home | Current Version | Previous Version | Graphics & Text | Print | Product List | Glossary On
Versions: 1 2 3 4 5 6 7 8 9 10 11 12 13 14 15 16 17 18 19 20 21 22 23 24 25 26 27 28 29 30 31 32 33 34 35 36 37 38 39 40 41 42 43 44 45 46 47 48 49 50
962
ASUS43 KMKX 202021
RWRWI

WISCONSIN REGIONAL WEATHER ROUNDUP
NATIONAL WEATHER SERVICE MILWAUKEE/SULLIVAN WI
300 PM CDT FRI OCT 20 2017

NOTE: "FAIR" INDICATES FEW OR NO CLOUDS BELOW 12,000 FEET WITH NO
SIGNIFICANT WEATHER AND/OR OBSTRUCTIONS TO VISIBILITY.

WIZ001-002-006>008-014>016-023>028-202100-
NORTHWEST WISCONSIN

CITY           SKY/WX    TMP DP  RH WIND       PRES   REMARKS
SUPERIOR ARPT  CLOUDY    77  50  38 S10G18    29.73F
ASHLAND        SUNNY     77  47  34 S14G24    29.79F
HAYWARD        MOSUNNY   73  46  38 SW15      29.82F
SIREN          SUNNY     75  43  31 S20G32    29.78F
CUMBERLAND     SUNNY     72  45  37 S14G21    29.82F
RICE LAKE      SUNNY     75  45  34 S16G24    29.84F
CHETEK         SUNNY     75  50  40 S13G24    29.84F
LADYSMITH      SUNNY     74  45  34 S16G24    29.88F
EAU CLAIRE     MOSUNNY   76  48  37 S13       29.85F
MENOMONIE      SUNNY     76  47  35 SE15G23   29.84F
NEW RICHMOND   SUNNY     76  43  31 S18       29.81F
OSCEOLA        SUNNY     76  46  33 S21       29.81F
$$

WIZ003>005-009-010-017-018-202100-
NORTH CENTRAL WISCONSIN

CITY           SKY/WX    TMP DP  RH WIND       PRES   REMARKS
MANITOWISH WTR SUNNY     76  41  27 SW13G21   29.88F
ARBOR VITAE    SUNNY     77  42  28 SW10G24   29.90F
WOODRUFF       SUNNY     77  42  28 SW10G24   29.90F
RHINELANDER    SUNNY     73  44  35 S14G21    29.93F
EAGLE RIVER    SUNNY     75  38  25 S10G16    29.91F
LAND O LAKES   SUNNY     77  36  22 S12G21    29.92F
PHILLIPS       SUNNY     73  46  38 S12G17    29.88F
TOMAHAWK       SUNNY     76  42  30 S3        29.92F
MEDFORD        SUNNY     72  46  39 S12G18    29.93S
MERRILL        SUNNY     76  47  35 SW9G16    29.94F
$$

WIZ029-030-035-036-043>047-202100-
CENTRAL WISCONSIN

CITY           SKY/WX    TMP DP  RH WIND       PRES   REMARKS
WAUSAU         SUNNY     73  47  39 S16       29.93F
MOSINEE        PTSUNNY   73  48  40 S13G18    29.96F
MARSHFIELD     SUNNY     74  43  32 S16       29.93F
STEVENS POINT  SUNNY     75  46  36 S12G18    29.96F
WAUPACA        SUNNY     76  46  33 S9        29.97F
WAUTOMA        SUNNY     77  46  33 SW12      29.97F
WISC RAPIDS    SUNNY     77  48  35 SW12      29.96F
CAMP DOUGLAS   PTSUNNY   75  48  38 S8        29.94F
$$

WIZ011>013-019>022-031-037>040-048>050-202100-
NORTHEAST WISCONSIN

CITY           SKY/WX    TMP DP  RH WIND       PRES   REMARKS
ANTIGO         SUNNY     74  46  36 S15       29.96F
SHAWANO        SUNNY     77  49  37 S6        29.96F
OCONTO         SUNNY     75  52  44 S9        29.96F
STURGEON BAY   SUNNY     70  54  56 S13       29.98F
GREEN BAY      SUNNY     74  53  48 S17       29.98F
MANITOWOC      SUNNY     65  53  65 S13       30.01F
APPLETON       MOSUNNY   73  43  33 S15       29.98F
CLINTONVILLE   SUNNY     75  48  38 S10       29.97F
OSHKOSH        SUNNY     75  48  38 S16       29.99F
$$

WIZ032>034-041-042-053>061-202100-
SOUTHWEST WISCONSIN

CITY           SKY/WX    TMP DP  RH WIND       PRES   REMARKS
LA CROSSE      CLOUDY    76  50  40 S16G25    29.90F
SPARTA         MOSUNNY   75  48  37 S10G17    29.94F
VIROQUA        CLOUDY    73  49  42 S14       29.96F
BOSCOBEL       SUNNY     77  50  38 S8G20     29.96F
PRAIRIE DU CHI SUNNY     75  43  31 SE9       29.94F
PLATTEVILLE    MOSUNNY   74  51  43 S14G20    30.00F
$$

WIZ056-057-062-063-064-067-068-202100-
SOUTH CENTRAL WISCONSIN

CITY           SKY/WX    TMP DP  RH WIND       PRES   REMARKS
REEDSBURG      SUNNY     76  47  35 S12       29.97F
BARABOO/DELLS  SUNNY     74  45  35 S9        29.98F
LONE ROCK      SUNNY     75  52  44 S10       29.97F
MINERAL POINT  SUNNY     75  48  38 S14G20    30.00F
MADISON        PTSUNNY   76  46  34 S14       30.00F
MIDDLETON      SUNNY     77  42  28 S14       30.01F
WATERTOWN      CLOUDY    77  48  36 S12G17    30.02F
MONROE         SUNNY     73  41  31 S16G22    30.02F
JANESVILLE     PTSUNNY   81  43  26 S17G23    30.02F
$$

WIZ051-052-058>065-066-070>072-202100-
SOUTHEAST WISCONSIN

CITY           SKY/WX    TMP DP  RH WIND       PRES   REMARKS
MILWAUKEE      PTSUNNY   79  51  37 S15       30.04F
WAUKESHA       SUNNY     73  46  38 SW14G22   30.05F
MILWAUKEE/TIMM SUNNY     79  43  27 S13G21    30.04F
RACINE         CLOUDY    72  55  55 S12       30.06F
BURLINGTON     CLOUDY    80  52  37 S15       30.04F HX  80
KENOSHA        MOSUNNY   78  50  37 SW17      30.06F
FOND DU LAC    SUNNY     78  45  30 S10       30.00F
SHEBOYGAN      SUNNY     77  47  34 S17       30.01F
WEST BEND      SUNNY     77  43  29 SW10      30.03S
JUNEAU         SUNNY     74  46  37 S12       30.03F
$$

LSZ147-162-202100-
LAKE SUPERIOR

STATION/POSITION TIME  TEMP    WIND        PRES    WAVE
                       AIR SEA DIR/SP/G            HT/PER
                 (UTC) (F)     (DEG/KT/KT) (MB)    (FT/S)
W MID LAKE BUOY  1950   56 54              1008.7F   1
DEVILS ISLAND    2000   57      10/ 11/ 12 1008.3F
PORT WING        1730           20/ 10/ 11 1009.5
SAXON HARBOR     1940   80     220/ 11/ 19 1008.1F
$$

LMZ867-665-643>646-202100-
LAKE MICHIGAN

STATION/POSITION TIME  TEMP    WIND        PRES    WAVE
                       AIR SEA DIR/SP/G            HT/PER
                 (UTC) (F)     (DEG/KT/KT) (MB)    (FT/S)
S GREEN BAY BUOY 2000   63 58  220/ 10/ 12 1014.7F
N MID LAKE BUOY  1950   61 58  190/ 19/ 23 1015.6F   4/ 6
NORTHPORT PIER   1940   62     160/  9/ 13 1014.9F
KEWAUNEE LAKESHO 1954   56     180/ 15/ 17 1015.3F
SHEBOYGAN LAKESH 2000   58     180/ 20/ 21 1016.3F
PORT WASHINGTON  1930   61     190/  8/ 11 1017.9F
ATWATER BUOY     1909   58 54  150/ 12/ 14 1017.4F
MILWAUKEE LAKESH 2000   60     140/ 15/ 17   N/A
S MID LAKE BUOY  1950   63 61  170/ 12/ 14 1018.8F   2/ 4
KENOSHA   LAKESH 2000   61     180/ 10/ 13 1017.3
$$

TC  - TEMPERATURE IN CELSIUS
VSB - VISIBILITY IN STATUTE MILES
WCI - WIND CHILL INDEX
HX  - HEAT INDEX





USA.gov is the U.S. government's official web portal to all federal, state and local government web resources and services.